2023/06/23 00:00:00,161.6,17.6
2023/06/23 00:10:00,161.6,17.4
2023/06/23 00:20:00,161.6,17.4
2023/06/23 00:30:00,161.6,17.3
2023/06/23 00:40:00,161.6,17.3
2023/06/23 00:50:00,161.6,17.6
2023/06/23 01:00:00,161.4,17.3
2023/06/23 01:10:00,161.4,17.0
2023/06/23 01:20:00,161.4,16.8
2023/06/23 01:30:00,161.4,16.8
2023/06/23 01:40:00,161.5,16.5
2023/06/23 01:50:00,161.6,16.3
2023/06/23 02:00:00,161.6,15.9
2023/06/23 02:10:00,161.6,16.4
2023/06/23 02:20:00,161.6,16.5
2023/06/23 02:30:00,161.6,16.5
2023/06/23 02:40:00,161.6,16.6
2023/06/23 02:50:00,161.6,16.7
2023/06/23 03:00:00,161.6,16.6
2023/06/23 03:10:00,161.6,16.3
2023/06/23 03:20:00,161.6,16.5
2023/06/23 03:30:00,161.6,16.6
2023/06/23 03:40:00,161.6,16.5
2023/06/23 03:50:00,161.6,16.4
2023/06/23 04:00:00,161.6,16.7
2023/06/23 04:10:00,161.6,16.6
2023/06/23 04:20:00,161.6,16.4
2023/06/23 04:30:00,161.6,16.7
2023/06/23 04:40:00,161.6,16.8
2023/06/23 04:50:00,161.6,16.7
2023/06/23 05:00:00,161.6,16.8
2023/06/23 05:10:00,161.6,16.9
2023/06/23 05:20:00,161.6,16.8
2023/06/23 05:30:00,161.6,17.0
2023/06/23 05:40:00,161.6,16.9
2023/06/23 05:50:00,161.6,17.7
2023/06/23 06:00:00,161.6,17.2
2023/06/23 06:10:00,161.6,17.4
2023/06/23 06:20:00,161.6,17.5
2023/06/23 06:30:00,161.6,18.1
2023/06/23 06:40:00,161.6,18.2
2023/06/23 06:50:00,161.4,18.4
2023/06/23 07:00:00,161.1,18.9
2023/06/23 07:10:00,161.1,18.7
2023/06/23 07:20:00,161.1,19.7
2023/06/23 07:30:00,161.1,20.0
2023/06/23 07:40:00,161.1,21.3
2023/06/23 07:50:00,161.2,21.8
2023/06/23 08:00:00,161.5,21.3
2023/06/23 08:10:00,160.3,21.8
2023/06/23 08:20:00,160.1,22.7
2023/06/23 08:30:00,133.6,22.9
2023/06/23 08:40:00,113.8,23.9
2023/06/23 08:50:00,113.8,23.0
2023/06/23 09:00:00,113.8,23.5
2023/06/23 09:10:00,133.4,22.5
2023/06/23 09:20:00,129.5,23.7
2023/06/23 09:30:00,119.6,23.3
2023/06/23 09:40:00,126.0,24.7
2023/06/23 09:50:00,132.9,23.6
2023/06/23 10:00:00,126.0,24.9
2023/06/23 10:10:00,119.4,23.7
2023/06/23 10:20:00,141.2,23.3
2023/06/23 10:30:00,123.8,23.3
2023/06/23 10:40:00,120.3,23.5
2023/06/23 10:50:00,130.2,23.7
2023/06/23 11:00:00,142.0,22.8
2023/06/23 11:10:00,142.0,23.5
2023/06/23 11:20:00,142.0,23.0
2023/06/23 11:30:00,160.3,22.6
2023/06/23 11:40:00,160.4,23.4
2023/06/23 11:50:00,---,23.5
2023/06/23 12:00:00,130.0,24.4
2023/06/23 12:10:00,130.0,24.8
2023/06/23 12:20:00,130.0,24.3
2023/06/23 12:30:00,130.2,25.3
2023/06/23 12:40:00,130.2,25.8
2023/06/23 12:50:00,---,25.8
2023/06/23 13:00:00,---,24.5
2023/06/23 13:10:00,---,24.6
2023/06/23 13:20:00,---,25.7
2023/06/23 13:30:00,160.0,25.4
2023/06/23 13:40:00,160.0,25.8
2023/06/23 13:50:00,41.6,25.6
2023/06/23 14:00:00,41.3,24.7
2023/06/23 14:10:00,40.9,24.5
2023/06/23 14:20:00, 0.0,25.5
2023/06/23 14:30:00, 0.0,27.2
2023/06/23 14:40:00, 0.0,25.9
2023/06/23 14:50:00, 0.0,24.2
2023/06/23 15:00:00, 0.0,25.1
2023/06/23 15:10:00,---,25.0
2023/06/23 15:20:00,---,25.0
2023/06/23 15:30:00,---,24.6
2023/06/23 15:40:00,---,23.0
2023/06/23 15:50:00,42.9,25.7
2023/06/23 16:00:00, 0.0,23.6
2023/06/23 16:10:00, 0.0,21.8
2023/06/23 16:20:00,---,22.2
2023/06/23 16:30:00,---,21.4
2023/06/23 16:40:00,136.3,21.9
2023/06/23 16:50:00,135.2,23.3
2023/06/23 17:00:00,135.2,23.2
2023/06/23 17:10:00,159.5,23.1
2023/06/23 17:20:00,159.7,21.7
2023/06/23 17:30:00,159.3,21.3
2023/06/23 17:40:00,158.9,21.6
2023/06/23 17:50:00,159.7,21.3
2023/06/23 18:00:00,159.6,20.4
2023/06/23 18:10:00,158.6,20.7
2023/06/23 18:20:00,158.5,20.4
2023/06/23 18:30:00,159.3,20.0
2023/06/23 18:40:00,159.3,20.2
2023/06/23 18:50:00,159.7,19.9
2023/06/23 19:00:00,161.1,19.8
2023/06/23 19:10:00,161.3,19.3
2023/06/23 19:20:00,161.3,19.2
2023/06/23 19:30:00,161.3,19.0
2023/06/23 19:40:00,161.3,18.8
2023/06/23 19:50:00,161.3,18.9
2023/06/23 20:00:00,161.3,18.6
2023/06/23 20:10:00,161.3,18.4
2023/06/23 20:20:00,161.3,18.5
2023/06/23 20:30:00,161.6,18.2
2023/06/23 20:40:00,161.6,18.4
2023/06/23 20:50:00,161.6,18.4
2023/06/23 21:00:00,161.2,18.3
2023/06/23 21:10:00,160.8,18.4
2023/06/23 21:20:00,160.9,18.1
2023/06/23 21:30:00,161.1,18.2
2023/06/23 21:40:00,161.4,18.3
2023/06/23 21:50:00,161.4,18.2
2023/06/23 22:00:00,159.5,18.0
2023/06/23 22:10:00,159.5,18.1
2023/06/23 22:20:00,160.7,18.1
2023/06/23 22:30:00,161.8,18.3
2023/06/23 22:40:00,161.8,18.1
2023/06/23 22:50:00,161.8,18.0
2023/06/23 23:00:00,161.9,17.8
2023/06/23 23:10:00,161.9,17.7
2023/06/23 23:20:00,161.9,18.2
2023/06/23 23:30:00,161.9,17.8
2023/06/23 23:40:00,162.1,17.6
2023/06/23 23:50:00,162.1,17.6
